Weather History for KSUW - February, 2013

Change the Weather History Date:

Friday, February 1, 2013

  Actual Average Record
Temperature  
Mean Temperature -9 °F -  
Max Temperature 0 °F 20 °F 14 °F (2014)
Min Temperature -18 °F 1 °F -11 °F (2015)
Degree Days  
Heating Degree Days 74    
Moisture  
Dew Point -18 °F    
Average Humidity 60    
Maximum Humidity 72    
Minimum Humidity 47    
Precipitation  
Precipitation 0.00 in - - ()
Sea Level Pressure  
Sea Level Pressure 30.19 in    
Wind  
Wind Speed 8 mph (West)    
Max Wind Speed 13 mph    
Max Gust Speed 10 mph    
Visibility 10 miles    
Events      
Averages and records for this station are not official NWS values.
T = Trace of Precipitation, MM = Missing Value Source: NWS Daily Summary

Daily Weather History Graph

Daily Weather History Graph

Search for Another Location

Airport or City:

Trip Planner

Search our weather history database for the weather conditions in past years. The results will help you decide how hot, cold, wet, or windy it might be!

Date:

Astronomy

Feb. 01, 2013 Rise Set
Actual Time 7:32 AM CST 5:12 PM CST
Civil Twilight 6:59 AM CST 5:44 PM CST
Nautical Twilight 6:23 AM CST 6:21 PM CST
Astronomical Twilight 5:48 AM CST 6:56 PM CST
Moon 11:47 PM CST (2/1) 9:41 AM CST (2/1)
Length of Visible Light 10h 45m
Length of Day
9h 40m
Waning Gibbous, 70% of the Moon is Illuminated
Feb 1
Waning Gibbous
Feb 3
Last Quarter
Feb 10
New
Feb 17
First Quarter
Feb 25
Full

Hourly Weather History & Observations

Time (CST) Temp. Windchill Dew Point Humidity Pressure Visibility Wind Dir Wind Speed Gust Speed Precip Events Conditions
12:15 AM -9.6 °F -27.0 °F -17.9 °F 67% 30.21 in 10.0 mi WNW 9.2 mph - N/A   Clear
12:35 AM -10.3 °F -29.0 °F -18.4 °F 67% 30.21 in 10.0 mi West 10.4 mph - N/A   Clear
1:15 AM -11.2 °F -27.8 °F -19.3 °F 67% 30.21 in 10.0 mi West 8.1 mph - N/A   Clear
1:35 AM -11.7 °F -30.8 °F -19.5 °F 69% 30.22 in 10.0 mi West 10.4 mph - N/A   Clear
1:55 AM -12.1 °F -30.1 °F -20.2 °F 67% 30.23 in 10.0 mi West 9.2 mph - N/A   Clear
2:15 AM -12.6 °F -28.2 °F -20.4 °F 68% 30.24 in 10.0 mi West 6.9 mph - N/A   Clear
2:35 AM -13.0 °F -28.6 °F -20.9 °F 68% 30.24 in 10.0 mi West 6.9 mph 10.4 mph N/A   Clear
2:55 AM -13.5 °F -35.0 °F -21.1 °F 69% 30.24 in 10.0 mi West 12.7 mph - N/A   Clear
3:15 AM -13.9 °F -34.5 °F -22.0 °F 67% 30.24 in 10.0 mi West 11.5 mph - N/A   Clear
3:35 AM -14.3 °F -35.9 °F -22.0 °F 68% 30.24 in 10.0 mi West 12.7 mph - N/A   Clear
4:15 AM -15.2 °F -33.9 °F -23.1 °F 67% 30.25 in 10.0 mi West 9.2 mph - N/A   Clear
4:35 AM -15.7 °F -34.6 °F -23.3 °F 69% 30.24 in 10.0 mi West 9.2 mph - N/A   Clear
5:15 AM -16.6 °F -35.7 °F -24.2 °F 69% 30.24 in 10.0 mi West 9.2 mph - N/A   Clear
5:35 AM -16.6 °F -34.4 °F -24.3 °F 68% 30.25 in 10.0 mi West 8.1 mph - N/A   Clear
5:55 AM -17.0 °F -37.3 °F -24.7 °F 68% 30.25 in 10.0 mi West 10.4 mph - N/A   Clear
6:15 AM -17.1 °F -33.6 °F -24.7 °F 69% 30.26 in 10.0 mi West 6.9 mph - N/A   Clear
6:35 AM -17.3 °F -32.1 °F -24.7 °F 69% 30.26 in 10.0 mi West 5.8 mph - N/A   Clear
7:15 AM -18.2 °F -31.2 °F -24.9 °F 72% 30.27 in 10.0 mi WSW 4.6 mph - N/A   Clear
7:35 AM -18.6 °F -33.6 °F -25.6 °F 70% 30.27 in 10.0 mi WSW 5.8 mph - N/A   Clear
7:55 AM -18.4 °F -33.4 °F -25.6 °F 70% 30.27 in 10.0 mi WSW 5.8 mph - N/A   Clear
8:15 AM -17.9 °F -34.5 °F -25.6 °F 68% 30.27 in 10.0 mi West 6.9 mph - N/A   Clear
8:35 AM -17.1 °F -35.0 °F -25.2 °F 67% 30.27 in 10.0 mi West 8.1 mph - N/A   Clear
8:55 AM -16.4 °F -35.5 °F -24.9 °F 66% 30.27 in 10.0 mi West 9.2 mph - N/A   Clear
9:15 AM -15.3 °F -32.9 °F -24.3 °F 64% 30.27 in 10.0 mi West 8.1 mph - N/A   Clear
9:35 AM -14.3 °F -30.1 °F -23.6 °F 63% 30.26 in 10.0 mi West 6.9 mph - N/A   Clear
9:55 AM -13.0 °F -28.6 °F -22.4 °F 63% 30.26 in 10.0 mi West 6.9 mph - N/A   Clear
10:15 AM -12.1 °F -30.1 °F -22.2 °F 61% 30.25 in 10.0 mi West 9.2 mph - N/A   Clear
10:35 AM -11.2 °F -27.8 °F -22.0 °F 59% 30.24 in 10.0 mi West 8.1 mph - N/A   Clear
10:55 AM -9.8 °F -24.7 °F -21.1 °F 57% 30.23 in 10.0 mi WNW 6.9 mph - N/A   Clear
11:15 AM -8.7 °F -21.9 °F -20.4 °F 57% 30.23 in 10.0 mi WSW 5.8 mph - N/A   Clear
11:35 AM -8.0 °F -22.5 °F -19.8 °F 56% 30.22 in 10.0 mi West 6.9 mph - N/A   Clear
11:55 AM -6.9 °F -22.5 °F -19.5 °F 54% 30.21 in 10.0 mi West 8.1 mph - N/A   Clear
12:15 PM -5.6 °F -18.2 °F -18.8 °F 53% 30.21 in 10.0 mi WSW 5.8 mph - N/A   Clear
12:35 PM -5.1 °F -20.4 °F -18.9 °F 51% 30.20 in 10.0 mi West 8.1 mph - N/A   Clear
12:55 PM -4.0 °F -12.4 °F -18.8 °F 49% 30.19 in 10.0 mi West 3.5 mph - N/A   Clear
1:15 PM -2.9 °F -15.0 °F -17.9 °F 49% 30.17 in 10.0 mi WSW 5.8 mph - N/A   Clear
1:35 PM -2.4 °F -12.7 °F -17.9 °F 48% 30.16 in 10.0 mi West 4.6 mph - N/A   Clear
2:15 PM -1.7 °F -16.2 °F -17.1 °F 48% 30.15 in 10.0 mi West 8.1 mph - N/A   Clear
2:35 PM -1.1 °F -15.5 °F -17.0 °F 47% 30.15 in 10.0 mi WSW 8.1 mph - N/A   Clear
2:55 PM -1.1 °F -15.5 °F -16.2 °F 49% 30.14 in 10.0 mi West 8.1 mph - N/A   Mostly Cloudy
3:15 PM -0.6 °F -14.9 °F -16.2 °F 48% 30.14 in 10.0 mi West 8.1 mph - N/A   Overcast
3:35 PM -0.4 °F -14.7 °F -15.7 °F 49% 30.14 in 10.0 mi West 8.1 mph - N/A   Overcast
4:15 PM -0.4 °F -15.7 °F -15.2 °F 50% 30.13 in 10.0 mi West 9.2 mph - N/A   Overcast
4:35 PM -0.4 °F -13.4 °F -15.0 °F 50% 30.13 in 10.0 mi West 6.9 mph - N/A   Overcast
4:55 PM -0.4 °F -12.0 °F -14.6 °F 51% 30.13 in 10.0 mi West 5.8 mph - N/A   Overcast
5:15 PM -0.4 °F -12.0 °F -14.8 °F 51% 30.12 in 10.0 mi West 5.8 mph - N/A   Overcast
5:35 PM -0.0 °F -9.9 °F -14.4 °F 51% 30.12 in 10.0 mi West 4.6 mph - N/A   Overcast
5:55 PM 0.1 °F -11.4 °F -14.1 °F 51% 30.12 in 10.0 mi WSW 5.8 mph - N/A   Overcast
6:15 PM 0.3 °F -11.2 °F -14.4 °F 50% 30.12 in 10.0 mi West 5.8 mph - N/A   Overcast
6:35 PM 0.3 °F -9.5 °F -13.9 °F 51% 30.12 in 10.0 mi West 4.6 mph - N/A   Overcast
6:55 PM 0.3 °F -7.5 °F -14.1 °F 51% 30.12 in 10.0 mi West 3.5 mph - N/A   Overcast
7:15 PM 0.3 °F - -13.9 °F 51% 30.12 in 10.0 mi Calm Calm - N/A   Overcast
7:35 PM 0.5 °F -7.3 °F -13.2 °F 53% 30.12 in 10.0 mi WSW 3.5 mph - N/A   Overcast
7:55 PM 0.1 °F -14.0 °F -13.0 °F 54% 30.12 in 10.0 mi SW 8.1 mph - N/A   Overcast
8:15 PM -0.0 °F -14.2 °F -12.8 °F 55% 30.12 in 10.0 mi SW 8.1 mph - N/A   Overcast
8:35 PM -0.2 °F -13.2 °F -12.8 °F 55% 30.12 in 10.0 mi SW 6.9 mph - N/A   Overcast
8:55 PM -0.4 °F -12.0 °F -13.0 °F 55% 30.12 in 10.0 mi WSW 5.8 mph - N/A   Overcast
9:15 PM -0.4 °F -12.0 °F -12.1 °F 58% 30.12 in 10.0 mi WSW 5.8 mph - N/A   Overcast
9:35 PM -0.6 °F -14.9 °F -11.9 °F 59% 30.12 in 10.0 mi WSW 8.1 mph - N/A   Overcast
9:55 PM -0.6 °F -13.6 °F -10.8 °F 62% 30.12 in 10.0 mi WSW 6.9 mph - N/A   Overcast
10:15 PM -0.8 °F -12.5 °F -10.5 °F 63% 30.12 in 10.0 mi WSW 5.8 mph - N/A   Overcast
10:35 PM -0.8 °F -10.8 °F -10.7 °F 63% 30.12 in 10.0 mi WSW 4.6 mph - N/A   Overcast
10:55 PM -0.8 °F -10.8 °F -10.7 °F 63% 30.12 in 10.0 mi West 4.6 mph - N/A   Overcast
11:15 PM -0.8 °F -12.5 °F -9.8 °F 66% 30.12 in 7.0 mi West 5.8 mph - N/A   Overcast
11:35 PM -0.8 °F -10.8 °F -9.4 °F 67% 30.12 in 10.0 mi West 4.6 mph - N/A   Overcast
11:55 PM -0.8 °F - -9.4 °F 67% 30.12 in 10.0 mi Calm Calm - N/A   Overcast